Main page
METAR-TAF:

METAR-TAF

Airports :

K14-fa-1c, Netherlands

Oil platform

latitude: 53-16-10N, longitude: 3-37-40E, elevation: 28 m

Current weather observation

The report was made 16 hours and 57 minutes ago, at 11:55 UTC
Wind 34 kt from the South/Southwest
Temperature 16°C
Humidity 68%
Pressure 1003 hPa
Visibility 10 km or more
Few clouds at a height of 2100 ft

METAR: EHKV 211155Z AUTO 20034KT 9999 FEW021 16/10 Q1003

Time: 06:52 (04:52 UTC)


TAF: missing

Weather observations and forecasts of more than 4000 airports (METAR and TAF reports).

The available stations are represented by yellow and red dots on the map.

Hover mouse over dot to see the name of the station.

Then click to see weather observations and forecasts.

To change the map : click on the green buttons with a black cross to zoom in, on the green button with a dash to zoom out, or on the green arrows for adjacent maps.


METAR-TAF: